Weather History for Norfolk, NE

Change the Weather History Date:

Sunday, August 25, 2013

  Actual Average Record
Temperature  
Mean Temperature 84 °F 72 °F  
Max Temperature 92 °F 83 °F 103 °F (1955)
Min Temperature 75 °F 60 °F 42 °F (1934)
Degree Days  
Heating Degree Days 0 1  
Month to date heating degree days 3 2  
Since 1 June heating degree days 58 36  
Since 1 July heating degree days 16 6  
Cooling Degree Days 19 7  
Month to date cooling degree days 194 217  
Year to date cooling degree days 732 778  
Since 1 June cooling degree days 668 717  
Growing Degree Days 33 (Base 50)    
Moisture  
Dew Point 71 °F    
Average Humidity 69    
Maximum Humidity 82    
Minimum Humidity 56    
Precipitation  
Precipitation 0.00 in 0.10 in 1.86 in (1902)
Month to date precipitation 3.58 2.69  
Year to date precipitation 18.41 19.97  
Snow  
Snow 0.00 in 0.00 in - ()
Month to date snowfall 0.0 0.0  
Since 1 July snowfall 0.0 0.0  
Snow Depth 0.00 in    
Sea Level Pressure  
Sea Level Pressure 29.99 in    
Wind  
Wind Speed 16 mph (South)    
Max Wind Speed 28 mph    
Max Gust Speed 36 mph    
Visibility 10 miles    
Events      
T = Trace of Precipitation, MM = Missing Value Source: NWS Daily Summary

Daily Weather History Graph

Daily Weather History Graph

Search for Another Location

Airport:

Trip Planner

Search our weather history database for the weather conditions in past years. The results will help you decide how hot, cold, wet, or windy it might be!

Date:

Astronomy

Aug. 25, 2013 Rise Set
Actual Time 6:48 AM CDT 8:14 PM CDT
Civil Twilight 6:19 AM CDT 8:43 PM CDT
Nautical Twilight 5:43 AM CDT 9:18 PM CDT
Astronomical Twilight 5:06 AM CDT 9:55 PM CDT
Moon 10:40 PM CDT (8/25) 11:57 AM CDT (8/25)
Length of Visible Light 14h 24m
Length of Day
13h 25m
Waning Gibbous, 75% of the Moon is Illuminated
Aug 25
Waning Gibbous
Aug 28
Last Quarter
Sep 5
New
Sep 12
First Quarter
Sep 19
Full

Hourly Weather History & Observations

Time (CDT) Temp. Heat Index Dew Point Humidity Pressure Visibility Wind Dir Wind Speed Gust Speed Precip Events Conditions
12:56 AM 79.0 °F - 70.0 °F 74% 29.97 in 10.0 mi South 17.3 mph 25.3 mph N/A   Clear
1:56 AM 77.0 °F - 70.0 °F 79% 29.98 in 10.0 mi South 16.1 mph - N/A   Clear
2:56 AM 75.9 °F - 70.0 °F 82% 29.99 in 10.0 mi South 13.8 mph 19.6 mph N/A   Clear
3:56 AM 75.9 °F - 70.0 °F 82% 30.00 in 10.0 mi South 15.0 mph - N/A   Clear
4:56 AM 75.9 °F - 70.0 °F 82% 29.99 in 10.0 mi South 15.0 mph 24.2 mph N/A   Clear
5:56 AM 75.0 °F - 69.1 °F 82% 30.00 in 10.0 mi South 13.8 mph 24.2 mph N/A   Clear
6:56 AM 75.0 °F - 69.1 °F 82% 30.00 in 10.0 mi South 17.3 mph 27.6 mph N/A   Clear
7:56 AM 75.9 °F - 69.1 °F 79% 30.01 in 10.0 mi South 19.6 mph 28.8 mph N/A   Clear
8:56 AM 78.1 °F - 69.1 °F 74% 30.00 in 10.0 mi South 23.0 mph 29.9 mph N/A   Clear
9:56 AM 81.0 °F 84.4 °F 70.0 °F 69% 30.00 in 10.0 mi South 24.2 mph 34.5 mph N/A   Clear
10:56 AM 84.0 °F 89.0 °F 71.1 °F 65% 30.01 in 10.0 mi South 20.7 mph 27.6 mph N/A   Clear
11:56 AM 84.9 °F 90.1 °F 71.1 °F 63% 30.01 in 10.0 mi South 15.0 mph 23.0 mph N/A   Clear
12:56 PM 87.1 °F 92.8 °F 71.1 °F 59% 29.99 in 10.0 mi South 19.6 mph 28.8 mph N/A   Clear
1:56 PM 89.1 °F 96.0 °F 72.0 °F 57% 29.99 in 10.0 mi SSW 17.3 mph 25.3 mph N/A   Clear
2:56 PM 91.0 °F 99.3 °F 73.0 °F 55% 29.99 in 10.0 mi South 16.1 mph 19.6 mph N/A   Clear
3:56 PM 91.0 °F 100.4 °F 73.9 °F 57% 29.98 in 10.0 mi South 17.3 mph 23.0 mph N/A   Clear
4:56 PM 91.0 °F 99.3 °F 73.0 °F 55% 29.97 in 10.0 mi South 17.3 mph 24.2 mph N/A   Clear
5:56 PM 89.1 °F 98.0 °F 73.9 °F 61% 29.97 in 10.0 mi South 13.8 mph - N/A   Clear
6:56 PM 87.1 °F 95.4 °F 73.9 °F 65% 29.96 in 10.0 mi South 13.8 mph 21.9 mph N/A   Clear
7:56 PM 84.9 °F 90.7 °F 72.0 °F 65% 29.96 in 10.0 mi South 12.7 mph - N/A   Clear
8:56 PM 82.9 °F 88.0 °F 72.0 °F 69% 29.97 in 10.0 mi SSE 12.7 mph - N/A   Clear
9:56 PM 82.0 °F 86.3 °F 71.1 °F 69% 29.99 in 10.0 mi South 13.8 mph 21.9 mph N/A   Clear
10:56 PM 81.0 °F 84.4 °F 70.0 °F 69% 30.00 in 10.0 mi South 11.5 mph - N/A   Clear
11:56 PM 80.1 °F 83.2 °F 70.0 °F 71% 30.00 in 10.0 mi South 15.0 mph 23.0 mph N/A   Clear